Weather History for KPIH - February, 2013

Change the Weather History Date:

Friday, February 1, 2013

  Actual Average Record
Temperature  
Mean Temperature 36 °F 25 °F  
Max Temperature 41 °F 34 °F 59 °F (2003)
Min Temperature 30 °F 17 °F -33 °F (1985)
Degree Days  
Heating Degree Days 29 40  
Month to date heating degree days 29 40  
Since 1 July heating degree days 4137 4287  
Cooling Degree Days 0 0  
Month to date cooling degree days 0 0  
Year to date cooling degree days 0 0  
Moisture  
Dew Point 30 °F    
Average Humidity 85    
Maximum Humidity 100    
Minimum Humidity 70    
Precipitation  
Precipitation 0.00 in 0.03 in 0.42 in (1963)
Month to date precipitation 0.00 0.03  
Year to date precipitation 0.57 1.02  
Snow  
Snow 0.00 in - - ()
Month to date snowfall 0.0  
Since 1 July snowfall 26.6  
Snow Depth T in    
Sea Level Pressure  
Sea Level Pressure 30.32 in    
Wind  
Wind Speed 12 mph (SW)    
Max Wind Speed 22 mph    
Max Gust Speed 26 mph    
Visibility 10 miles    
Events      
T = Trace of Precipitation, MM = Missing Value Source: NWS Daily Summary

Daily Weather History Graph

Daily Weather History Graph

Search for Another Location

Airport or City:

Trip Planner

Search our weather history database for the weather conditions in past years. The results will help you decide how hot, cold, wet, or windy it might be!

Date:

Astronomy

Feb. 01, 2013 Rise Set
Actual Time 7:44 AM MST 5:43 PM MST
Civil Twilight 7:14 AM MST 6:13 PM MST
Nautical Twilight 6:40 AM MST 6:47 PM MST
Astronomical Twilight 6:07 AM MST 7:20 PM MST
Moon No Moon Rise 10:10 AM MST (2/1)
Length of Visible Light 10h 58m
Length of Day
9h 58m
Waning Gibbous, 69% of the Moon is Illuminated
Feb 1
Waning Gibbous
Feb 3
Last Quarter
Feb 10
New
Feb 17
First Quarter
Feb 25
Full

Hourly Weather History & Observations

Time (MST) Temp. Windchill Dew Point Humidity Pressure Visibility Wind Dir Wind Speed Gust Speed Precip Events Conditions
12:36 AM 37.4 °F 29.3 °F 30.2 °F 75% 30.21 in 10.0 mi SSW 12.7 mph - N/A   Mostly Cloudy
12:43 AM 37.4 °F 29.8 °F 30.2 °F 75% 30.20 in 10.0 mi South 11.5 mph - N/A   Mostly Cloudy
12:53 AM 37.0 °F 29.3 °F 30.9 °F 79% 30.25 in 10.0 mi SSW 11.5 mph - N/A   Mostly Cloudy
1:04 AM 37.4 °F 28.9 °F 30.2 °F 75% 30.21 in 10.0 mi SSW 13.8 mph - N/A   Overcast
1:53 AM 37.9 °F 28.2 °F 30.9 °F 76% 30.23 in 10.0 mi SSW 18.4 mph - N/A   Overcast
2:53 AM 37.0 °F 29.3 °F 30.9 °F 79% 30.23 in 10.0 mi SSW 11.5 mph - N/A   Overcast
3:53 AM 37.9 °F 28.9 °F 30.0 °F 73% 30.23 in 10.0 mi SSW 16.1 mph - N/A   Overcast
4:53 AM 34.0 °F 24.6 °F 30.0 °F 85% 30.24 in 10.0 mi SW 13.8 mph - N/A   Mostly Cloudy
5:53 AM 37.0 °F 29.8 °F 28.9 °F 73% 30.22 in 10.0 mi SW 10.4 mph - N/A   Overcast
6:53 AM 35.1 °F 26.9 °F 28.9 °F 78% 30.24 in 10.0 mi SSW 11.5 mph - N/A   Overcast
7:53 AM 35.1 °F 25.2 °F 28.9 °F 78% 30.25 in 10.0 mi SW 16.1 mph - N/A   Mostly Cloudy
8:53 AM 34.0 °F 25.5 °F 30.0 °F 85% 30.28 in 10.0 mi WSW 11.5 mph - N/A   Mostly Cloudy
9:53 AM 34.0 °F 25.5 °F 30.0 °F 85% 30.31 in 10.0 mi WSW 11.5 mph - N/A   Overcast
10:53 AM 35.1 °F 25.2 °F 30.9 °F 85% 30.32 in 10.0 mi SW 16.1 mph - N/A   Overcast
11:12 AM 35.6 °F 26.6 °F 30.2 °F 81% 30.29 in 10.0 mi SW 13.8 mph - N/A   Overcast
11:53 AM 37.0 °F 27.4 °F 32.0 °F 82% 30.33 in 10.0 mi SW 17.3 mph - N/A   Overcast
12:53 PM 37.4 °F 27.8 °F 32.0 °F 81% 30.30 in 10.0 mi WSW 17.3 mph 24.2 mph N/A   Mostly Cloudy
1:53 PM 39.0 °F 29.3 °F 32.0 °F 76% 30.32 in 10.0 mi WSW 19.6 mph 25.3 mph N/A   Mostly Cloudy
2:53 PM 39.9 °F 31.8 °F 33.1 °F 77% 30.33 in 10.0 mi WSW 15.0 mph - N/A   Mostly Cloudy
3:53 PM 37.9 °F 29.2 °F 32.0 °F 79% 30.35 in 10.0 mi WSW 15.0 mph - N/A   Scattered Clouds
4:53 PM 37.0 °F 29.8 °F 32.0 °F 82% 30.37 in 10.0 mi WSW 10.4 mph - N/A   Scattered Clouds
5:53 PM 30.9 °F 25.2 °F 30.0 °F 96% 30.38 in 10.0 mi SW 5.8 mph - N/A   Scattered Clouds
6:53 PM 32.0 °F 24.2 °F 30.0 °F 92% 30.40 in 10.0 mi SW 9.2 mph - N/A   Scattered Clouds
7:53 PM 32.0 °F 25.6 °F 30.0 °F 92% 30.41 in 10.0 mi West 6.9 mph - N/A   Mostly Cloudy
8:53 PM 33.1 °F 30.0 °F 30.9 °F 92% 30.43 in 9.0 mi SW 3.5 mph - N/A   Overcast
9:53 PM 34.0 °F 28.8 °F 30.0 °F 85% 30.44 in 10.0 mi SSW 5.8 mph - N/A   Overcast
10:53 PM 33.1 °F 27.7 °F 28.0 °F 82% 30.45 in 10.0 mi SSW 5.8 mph - N/A   Mostly Cloudy
11:09 PM 33.8 °F 27.7 °F 28.4 °F 81% 30.40 in 10.0 mi SSW 6.9 mph - N/A   Mostly Cloudy
11:21 PM 33.8 °F 28.6 °F 28.4 °F 81% 30.40 in 10.0 mi SSW 5.8 mph - N/A   Mostly Cloudy
11:53 PM 35.1 °F 30.1 °F 30.0 °F 82% 30.46 in 10.0 mi SSW 5.8 mph - N/A   Overcast